,,,PA_Meas_PMT16A,,PR_Meas_QMR101_102,,RH_Meas_QMH101,,SR_Meas_QMS101,,TA_Meas_QMH101,,GenWind,,GenWind,
date,time,status,PA,status,PR,status,RH,status,SR,status,TA,status,DirAvg,status,SpdAvg,
2010-02-16, 00:00:04,VALID,1011.56,VALID,0,VALID,86.4608,VALID,0,VALID,25.1947,VALID,98,VALID,0,
2010-02-16, 00:01:04,VALID,1011.54,VALID,0,VALID,86.4684,VALID,0,VALID,25.1947,VALID,83,VALID,0,
2010-02-16, 00:02:04,VALID,1011.5,VALID,0,VALID,86.4913,VALID,0,VALID,25.2142,VALID,83,VALID,0,
2010-02-16, 00:03:04,VALID,1011.48,VALID,0,VALID,86.4532,VALID,0,VALID,25.2142,VALID,111,VALID,0,
2010-02-16, 00:04:04,VALID,1011.45,VALID,0,VALID,86.4608,VALID,0,VALID,25.2142,VALID,104,VALID,0,
2010-02-16, 00:05:04,VALID,1011.41,VALID,0,VALID,86.476,VALID,0,VALID,25.2142,VALID,98,VALID,0,
2010-02-16, 00:06:04,VALID,1011.42,VALID,0,VALID,86.4455,VALID,0,VALID,25.1947,VALID,75,VALID,0,
2010-02-16, 00:07:04,VALID,1011.41,VALID,0,VALID,86.4227,VALID,0,VALID,25.2142,VALID,87,VALID,0,
2010-02-16, 00:08:04,VALID,1011.42,VALID,0,VALID,86.4379,VALID,0,VALID,25.1733,VALID,97,VALID,0.808984,
2010-02-16, 00:09:04,VALID,1011.41,VALID,0,VALID,86.4913,VALID,0,VALID,25.1947,VALID,93,VALID,0.399219,
2010-02-16, 00:10:04,VALID,1011.4,VALID,0,VALID,86.3998,VALID,0,VALID,25.2142,VALID,79,VALID,0.474609,
2010-02-16, 00:11:04,VALID,1011.37,VALID,0,VALID,86.415,VALID,0.105969,VALID,25.1928,VALID,76,VALID,0.726563,
2010-02-16, 00:12:04,VALID,1011.34,VALID,0,VALID,86.4455,VALID,0,VALID,25.1752,VALID,91,VALID,0,
2010-02-16, 00:13:04,VALID,1011.32,VALID,0,VALID,86.4074,VALID,0,VALID,25.1538,VALID,90,VALID,0,
2010-02-16, 00:14:04,VALID,1011.3,VALID,0,VALID,86.415,VALID,0,VALID,25.1752,VALID,105,VALID,0.598828,
2010-02-16, 00:15:04,VALID,1011.3,VALID,0,VALID,86.3845,VALID,0,VALID,25.1947,VALID,101,VALID,0,
2010-02-16, 00:16:04,VALID,1011.3,VALID,0,VALID,86.4227,VALID,0,VALID,25.1947,VALID,104,VALID,0,
2010-02-16, 00:17:04,VALID,1011.32,VALID,0,VALID,86.3845,VALID,0,VALID,25.1947,VALID,78,VALID,0,
2010-02-16, 00:18:04,VALID,1011.3,VALID,0,VALID,86.3922,VALID,0,VALID,25.1733,VALID,92,VALID,0,
2010-02-16, 00:19:04,VALID,1011.3,VALID,0,VALID,86.3693,VALID,0,VALID,25.1947,VALID,88,VALID,0,
2010-02-16, 00:20:04,VALID,1011.28,VALID,0,VALID,86.3693,VALID,0,VALID,25.1947,VALID,91,VALID,0,
2010-02-16, 00:21:04,VALID,1011.25,VALID,0,VALID,86.3769,VALID,0,VALID,25.1947,VALID,72,VALID,0,
2010-02-16, 00:22:04,VALID,1011.26,VALID,0,VALID,86.3845,VALID,0,VALID,25.1947,VALID,89,VALID,0,
2010-02-16, 00:23:04,VALID,1011.26,VALID,0,VALID,86.3769,VALID,0,VALID,25.1752,VALID,78,VALID,0,
2010-02-16, 00:24:04,VALID,1011.24,VALID,0,VALID,86.3845,VALID,0,VALID,25.1752,VALID,107,VALID,0,
2010-02-16, 00:25:04,VALID,1011.21,VALID,0,VALID,86.3998,VALID,0,VALID,25.1752,VALID,91,VALID,0,
2010-02-16, 00:26:04,VALID,1011.2,VALID,0,VALID,86.354,VALID,0,VALID,25.1557,VALID,72,VALID,0,
2010-02-16, 00:27:04,VALID,1011.18,VALID,0,VALID,86.3845,VALID,0,VALID,25.1752,VALID,88,VALID,0,
2010-02-16, 00:28:04,VALID,1011.16,VALID,0,VALID,86.3464,VALID,0,VALID,25.1752,VALID,98,VALID,0,
2010-02-16, 00:29:04,VALID,1011.14,VALID,0,VALID,86.3235,VALID,0,VALID,25.1752,VALID,118,VALID,0,
2010-02-16, 00:30:04,VALID,1011.11,VALID,0,VALID,86.3617,VALID,0,VALID,25.1752,VALID,138,VALID,0,
2010-02-16, 00:31:04,VALID,1011.12,VALID,0,VALID,86.3312,VALID,0,VALID,25.1947,VALID,103,VALID,0,
2010-02-16, 00:32:04,VALID,1011.12,VALID,0,VALID,86.293,VALID,0,VALID,25.1947,VALID,97,VALID,0,
2010-02-16, 00:33:04,VALID,1011.1,VALID,0,VALID,86.3083,VALID,0,VALID,25.1947,VALID,95,VALID,0,
2010-02-16, 00:34:04,VALID,1011.07,VALID,0,VALID,86.3312,VALID,0,VALID,25.1752,VALID,100,VALID,0,
2010-02-16, 00:35:04,VALID,1011.07,VALID,0,VALID,86.3159,VALID,0,VALID,25.1947,VALID,103,VALID,0,
2010-02-16, 00:36:04,VALID,1011.06,VALID,0,VALID,86.3312,VALID,0,VALID,25.1752,VALID,89,VALID,0,
2010-02-16, 00:37:04,VALID,1011.03,VALID,0,VALID,86.3007,VALID,0.105969,VALID,25.1947,VALID,89,VALID,0,
2010-02-16, 00:38:04,VALID,1011.03,VALID,0,VALID,86.3312,VALID,0.105969,VALID,25.1947,VALID,70,VALID,0.592578,
2010-02-16, 00:39:04,VALID,1011.06,VALID,0,VALID,86.3007,VALID,0,VALID,25.1947,VALID,109,VALID,0.434766,
2010-02-16, 00:40:04,VALID,1011.07,VALID,0,VALID,86.293,VALID,0.105969,VALID,25.1947,VALID,66,VALID,0,
2010-02-16, 00:41:04,VALID,1011.1,VALID,0,VALID,86.3007,VALID,0,VALID,25.1947,VALID,56,VALID,0.492578,
2010-02-16, 00:42:04,VALID,1011.13,VALID,0,VALID,86.293,VALID,0,VALID,25.1928,VALID,87,VALID,0.942578,
2010-02-16, 00:43:04,VALID,1011.15,VALID,0,VALID,86.354,VALID,0,VALID,25.2142,VALID,81,VALID,0.526953,
2010-02-16, 00:44:04,VALID,1011.16,VALID,0,VALID,86.3464,VALID,0.105969,VALID,25.1928,VALID,95,VALID,0.964844,
2010-02-16, 00:45:04,VALID,1011.12,VALID,0,VALID,86.3312,VALID,0.105969,VALID,25.2337,VALID,119,VALID,0,
2010-02-16, 00:46:04,VALID,1011.11,VALID,0,VALID,86.3693,VALID,0,VALID,25.1947,VALID,105,VALID,0.986719,
2010-02-16, 00:47:04,VALID,1011.12,VALID,0,VALID,86.3769,VALID,0,VALID,25.2142,VALID,135,VALID,0.600391,
2010-02-16, 00:48:04,VALID,1011.1,VALID,0,VALID,86.3617,VALID,0,VALID,25.2337,VALID,177,VALID,0.809766,
2010-02-16, 00:49:04,VALID,1011.1,VALID,0,VALID,86.3922,VALID,0.105969,VALID,25.2318,VALID,145,VALID,0.814062,
2010-02-16, 00:50:04,VALID,1011.09,VALID,0,VALID,86.4074,VALID,0,VALID,25.2337,VALID,170,VALID,1.04023,
2010-02-16, 00:51:04,VALID,1011.08,VALID,0,VALID,86.3922,VALID,0,VALID,25.2337,VALID,168,VALID,0.395703,
2010-02-16, 00:52:04,VALID,1011.05,VALID,0,VALID,86.3998,VALID,0,VALID,25.2532,VALID,156,VALID,1.02578,
2010-02-16, 00:53:04,VALID,1011.03,VALID,0,VALID,86.415,VALID,0.105969,VALID,25.2123,VALID,171,VALID,0.836328,
2010-02-16, 00:54:04,VALID,1011.03,VALID,0,VALID,86.4455,VALID,0.105969,VALID,25.2337,VALID,136,VALID,0.650391,
2010-02-16, 00:55:04,VALID,1010.98,VALID,0,VALID,86.4455,VALID,0.105969,VALID,25.2532,VALID,110,VALID,0.621484,
2010-02-16, 00:56:04,VALID,1010.99,VALID,0,VALID,86.4303,VALID,0.105969,VALID,25.2318,VALID,122,VALID,0.202344,
2010-02-16, 00:57:04,VALID,1010.98,VALID,0,VALID,86.476,VALID,0.105969,VALID,25.2318,VALID,107,VALID,0,
2010-02-16, 00:58:04,VALID,1010.95,VALID,0,VALID,86.4608,VALID,0,VALID,25.2532,VALID,112,VALID,0,
2010-02-16, 00:59:04,VALID,1010.96,VALID,0,VALID,86.4913,VALID,0,VALID,25.2337,VALID,99,VALID,0.457812,
2010-02-16, 01:00:04,VALID,1010.94,VALID,0,VALID,86.4837,VALID,0,VALID,25.2318,VALID,117,VALID,0.584375,
2010-02-16, 01:01:04,VALID,1010.88,VALID,0,VALID,86.4913,VALID,0,VALID,25.2727,VALID,124,VALID,0,
2010-02-16, 01:02:04,VALID,1010.88,VALID,0,VALID,86.4684,VALID,0,VALID,25.2727,VALID,124,VALID,0,
2010-02-16, 01:03:04,VALID,1010.85,VALID,0,VALID,86.5523,VALID,0,VALID,25.2727,VALID,135,VALID,0,
2010-02-16, 01:04:04,VALID,1010.8,VALID,0,VALID,86.5599,VALID,0.105969,VALID,25.2532,VALID,138,VALID,0,
2010-02-16, 01:05:04,VALID,1010.81,VALID,0,VALID,86.5218,VALID,0,VALID,25.2727,VALID,138,VALID,0,
2010-02-16, 01:06:04,VALID,1010.81,VALID,0,VALID,86.4913,VALID,0.105969,VALID,25.2727,VALID,138,VALID,0,
2010-02-16, 01:07:04,VALID,1010.83,VALID,0,VALID,86.5523,VALID,0,VALID,25.2532,VALID,138,VALID,0,
2010-02-16, 01:08:04,VALID,1010.83,VALID,0,VALID,86.5447,VALID,0,VALID,25.2532,VALID,138,VALID,0,
2010-02-16, 01:09:04,VALID,1010.82,VALID,0,VALID,86.5904,VALID,0,VALID,25.2532,VALID,138,VALID,0,
2010-02-16, 01:10:04,VALID,1010.84,VALID,0,VALID,86.537,VALID,0,VALID,25.2532,VALID,138,VALID,0,
2010-02-16, 01:11:04,VALID,1010.83,VALID,0,VALID,86.5523,VALID,0,VALID,25.2727,VALID,138,VALID,0,
2010-02-16, 01:12:04,VALID,1010.84,VALID,0,VALID,86.5676,VALID,0.105969,VALID,25.2513,VALID,139,VALID,0,
2010-02-16, 01:13:04,VALID,1010.8,VALID,0,VALID,86.5523,VALID,0,VALID,25.2727,VALID,140,VALID,0,
2010-02-16, 01:14:04,VALID,1010.82,VALID,0,VALID,86.5828,VALID,0,VALID,25.2532,VALID,140,VALID,0.580859,
2010-02-16, 01:15:04,VALID,1010.79,VALID,0,VALID,86.5981,VALID,0,VALID,25.2337,VALID,143,VALID,0.733984,
2010-02-16, 01:16:04,VALID,1010.81,VALID,0,VALID,86.6133,VALID,0,VALID,25.2532,VALID,148,VALID,0.479688,
2010-02-16, 01:17:04,VALID,1010.79,VALID,0,VALID,86.5904,VALID,0,VALID,25.2727,VALID,137,VALID,0.588672,
2010-02-16, 01:18:04,VALID,1010.82,VALID,0,VALID,86.6057,VALID,0,VALID,25.2727,VALID,141,VALID,0.466016,
2010-02-16, 01:19:04,VALID,1010.78,VALID,0,VALID,86.6209,VALID,0,VALID,25.2532,VALID,151,VALID,0.557422,
2010-02-16, 01:20:04,VALID,1010.84,VALID,0,VALID,86.6286,VALID,0,VALID,25.2532,VALID,151,VALID,0.407031,
2010-02-16, 01:21:04,VALID,1010.81,VALID,0,VALID,86.6514,VALID,0,VALID,25.2532,VALID,151,VALID,0.739844,
2010-02-16, 01:22:04,VALID,1010.8,VALID,0,VALID,86.6133,VALID,0,VALID,25.2513,VALID,139,VALID,0.0667969,
2010-02-16, 01:23:04,VALID,1010.82,VALID,0,VALID,86.6133,VALID,0,VALID,25.2727,VALID,108,VALID,0.474219,
2010-02-16, 01:24:04,VALID,1010.79,VALID,0,VALID,86.6209,VALID,0,VALID,25.2727,VALID,127,VALID,0,
2010-02-16, 01:25:04,VALID,1010.77,VALID,0,VALID,86.6286,VALID,0,VALID,25.2727,VALID,127,VALID,0,
2010-02-16, 01:26:04,VALID,1010.74,VALID,0,VALID,86.6362,VALID,0,VALID,25.2532,VALID,127,VALID,0,
2010-02-16, 01:27:04,VALID,1010.73,VALID,0,VALID,86.6819,VALID,0,VALID,25.2727,VALID,142,VALID,0,
2010-02-16, 01:28:04,VALID,1010.69,VALID,0,VALID,86.6438,VALID,0,VALID,25.2922,VALID,131,VALID,0,
2010-02-16, 01:29:04,VALID,1010.67,VALID,0,VALID,86.6591,VALID,0,VALID,25.2922,VALID,134,VALID,0,
2010-02-16, 01:30:05,VALID,1010.67,VALID,0,VALID,86.6819,VALID,0,VALID,25.2532,VALID,134,VALID,0,
2010-02-16, 01:31:05,VALID,1010.65,VALID,0,VALID,86.6743,VALID,0,VALID,25.2727,VALID,134,VALID,0,
2010-02-16, 01:32:05,VALID,1010.66,VALID,0,VALID,86.6591,VALID,0,VALID,25.2922,VALID,132,VALID,0,
2010-02-16, 01:33:05,VALID,1010.62,VALID,0,VALID,86.6591,VALID,0,VALID,25.2727,VALID,128,VALID,0,
2010-02-16, 01:34:05,VALID,1010.61,VALID,0,VALID,86.6896,VALID,0,VALID,25.2513,VALID,114,VALID,0,
2010-02-16, 01:35:05,VALID,1010.63,VALID,0,VALID,86.6819,VALID,0,VALID,25.2727,VALID,121,VALID,0,
2010-02-16, 01:36:05,VALID,1010.62,VALID,0,VALID,86.6896,VALID,0,VALID,25.2727,VALID,149,VALID,0,
2010-02-16, 01:37:05,VALID,1010.62,VALID,0,VALID,86.6743,VALID,0,VALID,25.2708,VALID,141,VALID,0,
2010-02-16, 01:38:05,VALID,1010.61,VALID,0,VALID,86.7048,VALID,0,VALID,25.2727,VALID,160,VALID,0,
2010-02-16, 01:39:05,VALID,1010.62,VALID,0,VALID,86.7201,VALID,0,VALID,25.2922,VALID,171,VALID,0,
2010-02-16, 01:40:05,VALID,1010.6,VALID,0,VALID,86.6896,VALID,0,VALID,25.2922,VALID,115,VALID,0,
2010-02-16, 01:41:05,VALID,1010.61,VALID,0,VALID,86.6972,VALID,0,VALID,25.2922,VALID,114,VALID,0,
2010-02-16, 01:42:05,VALID,1010.61,VALID,0,VALID,86.7048,VALID,0,VALID,25.3312,VALID,126,VALID,0,
2010-02-16, 01:43:05,VALID,1010.6,VALID,0,VALID,86.6819,VALID,0,VALID,25.3312,VALID,114,VALID,0,
2010-02-16, 01:44:05,VALID,1010.6,VALID,0,VALID,86.7353,VALID,0,VALID,25.3117,VALID,133,VALID,0,
2010-02-16, 01:45:05,VALID,1010.6,VALID,0,VALID,86.7429,VALID,0,VALID,25.3312,VALID,140,VALID,0,
2010-02-16, 01:46:05,VALID,1010.59,VALID,0,VALID,86.7353,VALID,0,VALID,25.3312,VALID,127,VALID,0,
2010-02-16, 01:47:05,VALID,1010.6,VALID,0,VALID,86.7429,VALID,0,VALID,25.3526,VALID,161,VALID,0,
2010-02-16, 01:48:05,VALID,1010.59,VALID,0,VALID,86.7658,VALID,0,VALID,25.2903,VALID,150,VALID,1.22031,
2010-02-16, 01:49:05,VALID,1010.62,VALID,0,VALID,86.7887,VALID,0,VALID,25.3117,VALID,132,VALID,0.664844,
2010-02-16, 01:50:05,VALID,1010.57,VALID,0,VALID,86.8192,VALID,0,VALID,25.3117,VALID,169,VALID,0.808203,
2010-02-16, 01:51:05,VALID,1010.57,VALID,0,VALID,86.7887,VALID,0,VALID,25.2903,VALID,149,VALID,1.54023,
2010-02-16, 01:52:05,VALID,1010.57,VALID,0,VALID,86.7811,VALID,0,VALID,25.2727,VALID,142,VALID,1.10781,
2010-02-16, 01:53:05,VALID,1010.57,VALID,0,VALID,86.7658,VALID,0,VALID,25.2727,VALID,122,VALID,1.48945,
2010-02-16, 01:54:05,VALID,1010.56,VALID,0,VALID,86.7887,VALID,0,VALID,25.2727,VALID,150,VALID,1.10508,
2010-02-16, 01:55:05,VALID,1010.52,VALID,0,VALID,86.7887,VALID,0,VALID,25.2337,VALID,142,VALID,1.14336,
2010-02-16, 01:56:05,VALID,1010.54,VALID,0,VALID,86.7963,VALID,0,VALID,25.2532,VALID,147,VALID,0.839453,
2010-02-16, 01:57:05,VALID,1010.53,VALID,0,VALID,86.7887,VALID,0,VALID,25.2532,VALID,134,VALID,0.798828,
2010-02-16, 01:58:05,VALID,1010.52,VALID,0,VALID,86.7887,VALID,0,VALID,25.2532,VALID,131,VALID,0.914063,
2010-02-16, 01:59:05,VALID,1010.52,VALID,0,VALID,86.7963,VALID,0,VALID,25.2727,VALID,112,VALID,1.12578,
2010-02-16, 02:00:05,VALID,1010.51,VALID,0,VALID,86.7963,VALID,0,VALID,25.2532,VALID,110,VALID,1.0043,
2010-02-16, 02:01:05,VALID,1010.5,VALID,0,VALID,86.804,VALID,0,VALID,25.2727,VALID,96,VALID,1.39648,
2010-02-16, 02:02:05,VALID,1010.53,VALID,0,VALID,86.7811,VALID,0,VALID,25.2727,VALID,89,VALID,1.21953,
2010-02-16, 02:03:05,VALID,1010.52,VALID,0,VALID,86.804,VALID,0,VALID,25.2532,VALID,102,VALID,1.32148,
2010-02-16, 02:04:05,VALID,1010.55,VALID,0,VALID,86.7887,VALID,0.105969,VALID,25.2532,VALID,147,VALID,1.01602,
2010-02-16, 02:05:05,VALID,1010.55,VALID,0,VALID,86.804,VALID,0,VALID,25.2513,VALID,135,VALID,0.378906,
2010-02-16, 02:06:05,VALID,1010.54,VALID,0,VALID,86.8268,VALID,0,VALID,25.2318,VALID,122,VALID,0.8625,
2010-02-16, 02:07:05,VALID,1010.52,VALID,0,VALID,86.8268,VALID,0,VALID,25.2318,VALID,127,VALID,0.990625,
2010-02-16, 02:08:05,VALID,1010.52,VALID,0,VALID,86.8955,VALID,0,VALID,25.2337,VALID,126,VALID,1.72109,
2010-02-16, 02:09:05,VALID,1010.52,VALID,0,VALID,86.8116,VALID,0,VALID,25.2142,VALID,150,VALID,0.603516,
2010-02-16, 02:10:05,VALID,1010.51,VALID,0,VALID,86.8116,VALID,0,VALID,25.1928,VALID,127,VALID,0.595703,
2010-02-16, 02:11:05,VALID,1010.49,VALID,0,VALID,86.804,VALID,0,VALID,25.1947,VALID,144,VALID,1.4625,
2010-02-16, 02:12:05,VALID,1010.47,VALID,0,VALID,86.804,VALID,0,VALID,25.1947,VALID,123,VALID,1.24648,
2010-02-16, 02:13:05,VALID,1010.48,VALID,0,VALID,86.7963,VALID,0,VALID,25.1947,VALID,124,VALID,1.20547,
2010-02-16, 02:14:05,VALID,1010.47,VALID,0,VALID,86.8116,VALID,0,VALID,25.1538,VALID,130,VALID,0.921484,
2010-02-16, 02:15:05,VALID,1010.47,VALID,0,VALID,86.7887,VALID,0,VALID,25.1752,VALID,138,VALID,1.41914,
2010-02-16, 02:16:05,VALID,1010.45,VALID,0,VALID,86.7811,VALID,0,VALID,25.1752,VALID,139,VALID,0.541406,
2010-02-16, 02:17:05,VALID,1010.43,VALID,0,VALID,86.7963,VALID,0,VALID,25.1752,VALID,124,VALID,1.23008,
2010-02-16, 02:18:05,VALID,1010.4,VALID,0,VALID,86.7429,VALID,0,VALID,25.1343,VALID,123,VALID,1.21563,
2010-02-16, 02:19:05,VALID,1010.37,VALID,0,VALID,86.7201,VALID,0,VALID,25.1343,VALID,115,VALID,1.475,
2010-02-16, 02:20:05,VALID,1010.38,VALID,0,VALID,86.6972,VALID,0,VALID,25.1557,VALID,116,VALID,0.529688,
2010-02-16, 02:21:05,VALID,1010.39,VALID,0,VALID,86.6896,VALID,0,VALID,25.1343,VALID,105,VALID,1.25625,
2010-02-16, 02:22:05,VALID,1010.38,VALID,0,VALID,86.6819,VALID,0,VALID,25.1557,VALID,115,VALID,1.00352,
2010-02-16, 02:23:05,VALID,1010.37,VALID,0,VALID,86.6438,VALID,0.105969,VALID,25.1343,VALID,108,VALID,1.15586,
2010-02-16, 02:24:05,VALID,1010.39,VALID,0,VALID,86.6362,VALID,0,VALID,25.1343,VALID,136,VALID,0.642578,
2010-02-16, 02:25:05,VALID,1010.41,VALID,0,VALID,86.6438,VALID,0,VALID,25.1362,VALID,152,VALID,0.735547,
2010-02-16, 02:26:05,VALID,1010.43,VALID,0,VALID,86.6362,VALID,0,VALID,25.1148,VALID,153,VALID,1.08516,
2010-02-16, 02:27:05,VALID,1010.42,VALID,0,VALID,86.6057,VALID,0,VALID,25.1167,VALID,160,VALID,1.05898,
2010-02-16, 02:28:05,VALID,1010.43,VALID,0,VALID,86.6362,VALID,0,VALID,25.1167,VALID,174,VALID,0.342969,
2010-02-16, 02:29:05,VALID,1010.43,VALID,0,VALID,86.6819,VALID,0,VALID,25.1362,VALID,132,VALID,0,
2010-02-16, 02:30:05,VALID,1010.42,VALID,0,VALID,86.6514,VALID,0,VALID,25.0973,VALID,121,VALID,0,
2010-02-16, 02:31:05,VALID,1010.4,VALID,0,VALID,86.6743,VALID,0,VALID,25.0973,VALID,120,VALID,0,
2010-02-16, 02:32:05,VALID,1010.43,VALID,0,VALID,86.6514,VALID,0,VALID,25.1148,VALID,120,VALID,0,
2010-02-16, 02:33:05,VALID,1010.41,VALID,0,VALID,86.6819,VALID,0,VALID,25.0954,VALID,144,VALID,0,
2010-02-16, 02:34:05,VALID,1010.42,VALID,0,VALID,86.6896,VALID,0,VALID,25.1167,VALID,159,VALID,0,
2010-02-16, 02:35:05,VALID,1010.45,VALID,0,VALID,86.7048,VALID,0,VALID,25.1167,VALID,151,VALID,0,
2010-02-16, 02:36:05,VALID,1010.48,VALID,0,VALID,86.7124,VALID,0,VALID,25.0759,VALID,141,VALID,0,
2010-02-16, 02:37:05,VALID,1010.46,VALID,0,VALID,86.7811,VALID,0,VALID,25.0973,VALID,144,VALID,0,
2010-02-16, 02:38:05,VALID,1010.46,VALID,0,VALID,86.7582,VALID,0,VALID,25.1167,VALID,110,VALID,0,
2010-02-16, 02:39:05,VALID,1010.49,VALID,0,VALID,86.7582,VALID,0,VALID,25.0973,VALID,126,VALID,0.600781,
2010-02-16, 02:40:05,VALID,1010.47,VALID,0,VALID,86.7811,VALID,0,VALID,25.0759,VALID,123,VALID,0,
2010-02-16, 02:41:05,VALID,1010.47,VALID,0,VALID,86.804,VALID,0,VALID,25.1167,VALID,123,VALID,0,
2010-02-16, 02:42:05,VALID,1010.46,VALID,0,VALID,86.7887,VALID,0,VALID,25.1167,VALID,92,VALID,0,
2010-02-16, 02:43:05,VALID,1010.43,VALID,0,VALID,86.7963,VALID,0,VALID,25.0973,VALID,91,VALID,0,
2010-02-16, 02:44:05,VALID,1010.42,VALID,0,VALID,86.804,VALID,0,VALID,25.0759,VALID,105,VALID,0,
2010-02-16, 02:45:05,VALID,1010.36,VALID,0,VALID,86.804,VALID,0,VALID,25.0778,VALID,111,VALID,0,
2010-02-16, 02:46:05,VALID,1010.36,VALID,0,VALID,86.8192,VALID,0,VALID,25.0759,VALID,106,VALID,0,
2010-02-16, 02:47:05,VALID,1010.33,VALID,0,VALID,86.8192,VALID,0,VALID,25.0564,VALID,95,VALID,0,
2010-02-16, 02:48:05,VALID,1010.31,VALID,0,VALID,86.8116,VALID,0,VALID,25.0778,VALID,92,VALID,0,
2010-02-16, 02:49:05,VALID,1010.3,VALID,0,VALID,86.8268,VALID,0,VALID,25.0583,VALID,87,VALID,0,
2010-02-16, 02:50:05,VALID,1010.24,VALID,0,VALID,86.8116,VALID,0,VALID,25.0583,VALID,73,VALID,0,
2010-02-16, 02:51:05,VALID,1010.27,VALID,0,VALID,86.8116,VALID,0,VALID,25.0778,VALID,72,VALID,0,
2010-02-16, 02:52:05,VALID,1010.25,VALID,0,VALID,86.8268,VALID,0,VALID,25.0369,VALID,83,VALID,0,
2010-02-16, 02:53:05,VALID,1010.26,VALID,0,VALID,86.8421,VALID,0,VALID,25.0583,VALID,91,VALID,0,
2010-02-16, 02:54:05,VALID,1010.22,VALID,0,VALID,86.8116,VALID,0,VALID,25.0564,VALID,83,VALID,0,
2010-02-16, 02:55:05,VALID,1010.22,VALID,0,VALID,86.8497,VALID,0,VALID,25.0564,VALID,66,VALID,0.443359,
2010-02-16, 02:56:05,VALID,1010.21,VALID,0,VALID,86.8726,VALID,0,VALID,25.0174,VALID,60,VALID,0.540234,
2010-02-16, 02:57:05,VALID,1010.21,VALID,0,VALID,86.865,VALID,0,VALID,25.0174,VALID,61,VALID,0.625391,
2010-02-16, 02:58:05,VALID,1010.23,VALID,0,VALID,86.8802,VALID,0.105969,VALID,25.0174,VALID,65,VALID,0.992969,
2010-02-16, 02:59:05,VALID,1010.22,VALID,0,VALID,86.8726,VALID,0,VALID,24.9979,VALID,37,VALID,0.349609,
2010-02-16, 03:00:05,VALID,1010.23,VALID,0,VALID,86.8802,VALID,0,VALID,24.9784,VALID,98,VALID,0.354688,
2010-02-16, 03:01:05,VALID,1010.2,VALID,0,VALID,86.8878,VALID,0,VALID,24.9998,VALID,70,VALID,0.332812,
2010-02-16, 03:02:05,VALID,1010.22,VALID,0,VALID,86.9031,VALID,0,VALID,24.9803,VALID,69,VALID,0.000390625,
2010-02-16, 03:03:05,VALID,1010.2,VALID,0,VALID,86.9031,VALID,0.105969,VALID,24.9589,VALID,93,VALID,0,
2010-02-16, 03:04:05,VALID,1010.19,VALID,0,VALID,86.8878,VALID,0,VALID,24.9394,VALID,80,VALID,0,
2010-02-16, 03:05:05,VALID,1010.16,VALID,0,VALID,86.9031,VALID,0,VALID,24.9608,VALID,80,VALID,0,
2010-02-16, 03:06:05,VALID,1010.18,VALID,0,VALID,86.9412,VALID,0,VALID,24.9608,VALID,55,VALID,0,
2010-02-16, 03:07:05,VALID,1010.19,VALID,0,VALID,86.9183,VALID,0.105969,VALID,24.9413,VALID,55,VALID,0,
2010-02-16, 03:08:05,VALID,1010.16,VALID,0,VALID,86.9107,VALID,0,VALID,24.9199,VALID,60,VALID,0,
2010-02-16, 03:09:05,VALID,1010.15,VALID,0,VALID,86.9336,VALID,0,VALID,24.9218,VALID,84,VALID,0,
2010-02-16, 03:10:05,VALID,1010.15,VALID,0,VALID,86.9336,VALID,0,VALID,24.9413,VALID,78,VALID,0,
2010-02-16, 03:11:05,VALID,1010.14,VALID,0,VALID,86.9412,VALID,0,VALID,24.9004,VALID,66,VALID,0,
2010-02-16, 03:12:05,VALID,1010.09,VALID,0,VALID,86.9336,VALID,0,VALID,24.9023,VALID,47,VALID,0,
2010-02-16, 03:13:05,VALID,1010.07,VALID,0,VALID,86.9488,VALID,0,VALID,24.8809,VALID,55,VALID,0,
2010-02-16, 03:14:05,VALID,1010.03,VALID,0,VALID,86.926,VALID,0,VALID,24.9004,VALID,76,VALID,0,
2010-02-16, 03:15:05,VALID,1010.01,VALID,0,VALID,86.9488,VALID,0,VALID,24.8809,VALID,79,VALID,0,
2010-02-16, 03:16:05,VALID,1009.97,VALID,0,VALID,86.9565,VALID,0,VALID,24.9023,VALID,80,VALID,0,
2010-02-16, 03:17:05,VALID,1009.97,VALID,0,VALID,86.9183,VALID,0.105969,VALID,24.9023,VALID,35,VALID,0,
2010-02-16, 03:18:05,VALID,1009.99,VALID,0,VALID,86.9412,VALID,0,VALID,24.8828,VALID,3,VALID,0,
2010-02-16, 03:19:05,VALID,1009.97,VALID,0,VALID,86.9946,VALID,0.105969,VALID,24.8809,VALID,357,VALID,0,
2010-02-16, 03:20:05,VALID,1010.01,VALID,0,VALID,86.9793,VALID,0.105969,VALID,24.8809,VALID,352,VALID,0,
2010-02-16, 03:21:05,VALID,1009.98,VALID,0,VALID,86.9793,VALID,0,VALID,24.8809,VALID,340,VALID,0,
2010-02-16, 03:22:05,VALID,1010.01,VALID,0,VALID,86.987,VALID,0.105969,VALID,24.9004,VALID,83,VALID,0,
2010-02-16, 03:23:05,VALID,1010,VALID,0,VALID,86.987,VALID,0,VALID,24.9023,VALID,85,VALID,0,
2010-02-16, 03:24:05,VALID,1009.97,VALID,0,VALID,86.987,VALID,0,VALID,24.9023,VALID,85,VALID,0,
2010-02-16, 03:25:05,VALID,1010,VALID,0,VALID,86.9717,VALID,0.105969,VALID,24.9218,VALID,96,VALID,0,
2010-02-16, 03:26:05,VALID,1009.98,VALID,0,VALID,86.9793,VALID,0.105969,VALID,24.9199,VALID,96,VALID,0,
2010-02-16, 03:27:05,VALID,1009.96,VALID,0,VALID,86.9717,VALID,0.105969,VALID,24.9199,VALID,107,VALID,0,
2010-02-16, 03:28:05,VALID,1009.97,VALID,0,VALID,86.9946,VALID,0.105969,VALID,24.9394,VALID,108,VALID,0,
2010-02-16, 03:29:05,VALID,1009.98,VALID,0,VALID,86.9717,VALID,0.105969,VALID,24.9199,VALID,93,VALID,0,
2010-02-16, 03:30:05,VALID,1009.98,VALID,0,VALID,86.9717,VALID,0,VALID,24.9199,VALID,116,VALID,0,
2010-02-16, 03:31:05,VALID,1009.93,VALID,0,VALID,86.9412,VALID,0,VALID,24.9394,VALID,110,VALID,0,
2010-02-16, 03:32:05,VALID,1009.96,VALID,0,VALID,86.9717,VALID,0,VALID,24.9394,VALID,112,VALID,0,
2010-02-16, 03:33:05,VALID,1009.91,VALID,0,VALID,86.9641,VALID,0.105969,VALID,24.9589,VALID,117,VALID,0,
2010-02-16, 03:34:05,VALID,1009.94,VALID,0,VALID,86.9793,VALID,0.105969,VALID,24.9784,VALID,117,VALID,0,
2010-02-16, 03:35:05,VALID,1009.92,VALID,0,VALID,86.9946,VALID,0.105969,VALID,24.9589,VALID,120,VALID,0,
2010-02-16, 03:36:05,VALID,1009.93,VALID,0,VALID,86.9793,VALID,0,VALID,24.9589,VALID,108,VALID,0,
2010-02-16, 03:37:05,VALID,1009.94,VALID,0,VALID,87.0022,VALID,0.105969,VALID,24.9784,VALID,113,VALID,0,
2010-02-16, 03:38:05,VALID,1009.92,VALID,0,VALID,86.9946,VALID,0.105969,VALID,24.9998,VALID,103,VALID,0,
2010-02-16, 03:39:05,VALID,1009.93,VALID,0,VALID,86.9565,VALID,0.105969,VALID,24.9784,VALID,118,VALID,0,
2010-02-16, 03:40:05,VALID,1009.9,VALID,0,VALID,87.0098,VALID,0.105969,VALID,24.9589,VALID,141,VALID,0,
2010-02-16, 03:41:05,VALID,1009.89,VALID,0,VALID,86.987,VALID,0.105969,VALID,24.9784,VALID,110,VALID,0,
2010-02-16, 03:42:05,VALID,1009.86,VALID,0,VALID,87.0022,VALID,0,VALID,24.9803,VALID,95,VALID,0,
2010-02-16, 03:43:05,VALID,1009.87,VALID,0,VALID,87.0251,VALID,0,VALID,24.9589,VALID,88,VALID,0,
2010-02-16, 03:44:05,VALID,1009.85,VALID,0,VALID,87.0251,VALID,0,VALID,24.9413,VALID,65,VALID,0,
2010-02-16, 03:45:05,VALID,1009.81,VALID,0,VALID,87.0251,VALID,0.105969,VALID,24.9004,VALID,67,VALID,0,
2010-02-16, 03:46:05,VALID,1009.79,VALID,0,VALID,87.0175,VALID,0,VALID,24.9023,VALID,79,VALID,0,
2010-02-16, 03:47:05,VALID,1009.76,VALID,0,VALID,86.987,VALID,0,VALID,24.9004,VALID,63,VALID,0,
2010-02-16, 03:48:05,VALID,1009.74,VALID,0,VALID,87.0022,VALID,0.105969,VALID,24.8615,VALID,69,VALID,0,
2010-02-16, 03:49:05,VALID,1009.71,VALID,0,VALID,86.987,VALID,0,VALID,24.8828,VALID,94,VALID,0,
2010-02-16, 03:50:05,VALID,1009.71,VALID,0,VALID,86.9793,VALID,0.105969,VALID,24.8225,VALID,102,VALID,0,
2010-02-16, 03:51:05,VALID,1009.72,VALID,0,VALID,86.987,VALID,0,VALID,24.803,VALID,102,VALID,0,
2010-02-16, 03:52:05,VALID,1009.76,VALID,0,VALID,86.9641,VALID,0.105969,VALID,24.8225,VALID,86,VALID,0,